GAPWX Weather Reports


Display with metric or nautical units.
time (UTC)temp
F
wind
direction
speed
MPH
gust
MPH
rain 1hr
in
rain 24hr
in
rain mn
in
humidity
%
barometer
mb
20200712162841 66 45 1.0 3.0 0.00 0.00 0.00 33 1022.4
20200712162337 65 54 1.0 2.0 0.00 0.00 0.00 35 1022.4
20200712161925 65 45 0.0 1.0 0.00 0.00 0.00 36 1022.4
20200712161838 65 45 0.0 1.0 0.00 0.00 0.00 36 1022.4
20200712161335 64 88 1.0 3.0 0.00 0.00 0.00 36 1022.5
20200712160331 63 11 0.0 0.0 0.00 0.00 0.00 39 1022.5
20200712155831 62 112 0.0 2.0 0.00 0.00 0.00 40 1022.6
20200712155329 61 22 0.0 0.0 0.00 0.00 0.00 41 1022.7
20200712154828 60 45 0.0 0.0 0.00 0.00 0.00 43 1022.7
20200712154328 60 90 0.0 0.0 0.00 0.00 0.00 44 1022.8
20200712153826 59 90 0.0 0.0 0.00 0.00 0.00 45 1022.7
20200712153323 59 90 0.0 0.0 0.00 0.00 0.00 46 1022.8
20200712152324 58 90 0.0 0.0 0.00 0.00 0.00 47 1022.7
20200712151820 57 45 0.0 0.0 0.00 0.00 0.00 48 1022.8
20200712151318 57 315 0.0 0.0 0.00 0.00 0.00 49 1022.9
20200712150816 56 315 0.0 0.0 0.00 0.00 0.00 49 1022.9
20200712150314 55 315 0.0 0.0 0.00 0.00 0.00 49 1022.9
20200712145815 55 315 0.0 0.0 0.00 0.00 0.00 47 1022.9
20200712145312 55 315 0.0 0.0 0.00 0.00 0.00 46 1022.9
20200712144815 55 315 0.0 0.0 0.00 0.00 0.00 46 1022.9
20200712144313 55 315 0.0 0.0 0.00 0.00 0.00 45 1023.0
20200712143810 55 315 0.0 0.0 0.00 0.00 0.00 45 1023.0
20200712143306 55 315 0.0 0.0 0.00 0.00 0.00 45 1023.0
20200712142807 55 315 0.0 0.0 0.00 0.00 0.00 44 1022.9
20200712142305 54 315 0.0 0.0 0.00 0.00 0.00 44 1023.0
20200712140803 55 0 0.0 0.0 0.00 0.00 0.00 43 1023.1
20200712135759 54 0 0.0 0.0 0.00 0.00 0.00 44 1023.0
20200712135256 53 315 0.0 0.0 0.00 0.00 0.00 46 1023.1
20200712134756 52 315 0.0 0.0 0.00 0.00 0.00 45 1023.1
20200712134253 51 0 0.0 0.0 0.00 0.00 0.00 45 1023.0
20200712133753 50 1 0.0 0.0 0.00 0.00 0.00 45 1023.0
20200712132248 50 337 0.0 0.0 0.00 0.00 0.00 44 1023.1
20200712131748 50 45 0.0 0.0 0.00 0.00 0.00 44 1023.1
20200712131245 50 135 0.0 0.0 0.00 0.00 0.00 44 1023.1
20200712125817 50 128 0.0 0.0 0.00 0.00 0.00 43 1023.1
20200712125742 50 128 0.0 0.0 0.00 0.00 0.00 43 1023.1
20200712125314 50 0 0.0 0.0 0.00 0.00 0.00 43 1023.1
20200712125240 50 0 0.0 0.0 0.00 0.00 0.00 43 1023.1
20200712124740 50 100 0.0 1.0 0.00 0.00 0.00 43 1023.0
20200712124237 50 180 0.0 0.0 0.00 0.00 0.00 43 1023.1
20200712123740 50 347 0.0 0.0 0.00 0.00 0.00 43 1023.0
20200712123234 50 225 0.0 0.0 0.00 0.00 0.00 43 1023.0
20200712122734 50 25 0.0 1.0 0.00 0.00 0.00 43 1023.0
20200712122232 50 225 0.0 1.0 0.00 0.00 0.00 44 1023.0
20200712121732 50 131 0.0 0.0 0.00 0.00 0.00 44 1023.1
20200712120730 51 161 0.0 0.0 0.00 0.00 0.00 44 1023.0
20200712120227 51 90 0.0 0.0 0.00 0.00 0.00 44 1023.0
20200712114221 51 225 0.0 0.0 0.00 0.00 0.00 42 1023.0
20200712113219 51 270 0.0 0.0 0.00 0.00 0.00 42 1023.1
20200712112718 51 180 0.0 0.0 0.00 0.00 0.00 42 1023.2
20200712112251 51 135 0.0 0.0 0.00 0.00 0.00 42 1023.1
20200712112216 51 135 0.0 0.0 0.00 0.00 0.00 42 1023.1
20200712111716 51 16 0.0 0.0 0.00 0.00 0.00 42 1023.1
20200712111218 51 90 0.0 0.0 0.00 0.00 0.00 42 1023.2
20200712110801 51 45 0.0 0.0 0.00 0.00 0.00 42 1023.1
20200712110715 51 45 0.0 0.0 0.00 0.00 0.00 42 1023.1
20200712110241 51 37 0.0 1.0 0.00 0.00 0.00 42 1023.1
20200712110211 51 37 0.0 1.0 0.00 0.00 0.00 42 1023.1
20200712105710 51 232 1.0 2.0 0.00 0.00 0.00 42 1023.1
20200712105213 52 90 0.0 0.0 0.00 0.00 0.00 41 1023.2
20200712104754 52 131 0.0 0.0 0.00 0.00 0.00 41 1023.2
20200712104707 52 131 0.0 0.0 0.00 0.00 0.00 41 1023.2
20200712103202 52 90 0.0 0.0 0.00 0.00 0.00 41 1023.2
20200712101758 52 353 0.0 1.0 0.00 0.00 0.00 41 1023.3
20200712101659 52 353 0.0 1.0 0.00 0.00 0.00 41 1023.3
20200712101156 52 135 0.0 1.0 0.00 0.00 0.00 41 1023.3
20200712100656 53 298 0.0 1.0 0.00 0.00 0.00 41 1023.3
20200712100154 53 90 0.0 0.0 0.00 0.00 0.00 41 1023.4
20200712095751 53 45 0.0 0.0 0.00 0.00 0.00 41 1023.4
20200712095654 53 45 0.0 0.0 0.00 0.00 0.00 41 1023.4
20200712095151 53 51 0.0 0.0 0.00 0.00 0.00 40 1023.4
20200712094651 53 110 0.0 0.0 0.00 0.00 0.00 40 1023.4
20200712094151 53 309 0.0 0.0 0.00 0.00 0.00 40 1023.4
20200712093648 53 60 0.0 0.0 0.00 0.00 0.00 40 1023.4
20200712093147 53 108 0.0 0.0 0.00 0.00 0.00 40 1023.5
20200712092645 53 225 0.0 0.0 0.00 0.00 0.00 40 1023.5
20200712092146 53 269 0.0 0.0 0.00 0.00 0.00 40 1023.5
20200712091643 54 355 0.0 0.0 0.00 0.00 0.00 40 1023.6
20200712091143 54 54 0.0 0.0 0.00 0.00 0.00 40 1023.6
20200712090722 54 54 0.0 0.0 0.00 0.00 0.00 40 1023.6
20200712090640 54 54 0.0 0.0 0.00 0.00 0.00 40 1023.6
20200712090219 54 43 0.0 0.0 0.00 0.00 0.00 40 1023.6
20200712090141 54 43 0.0 0.0 0.00 0.00 0.00 40 1023.6
20200712084713 54 225 0.0 1.0 0.00 0.00 0.00 39 1023.6
20200712084635 54 225 0.0 1.0 0.00 0.00 0.00 39 1023.6
20200712084134 54 87 0.0 0.0 0.00 0.00 0.00 39 1023.7
20200712083632 55 87 0.0 0.0 0.00 0.00 0.00 38 1023.7
20200712083131 55 66 0.0 0.0 0.00 0.00 0.00 39 1023.7
20200712082129 55 225 1.0 1.0 0.00 0.00 0.00 38 1023.8
20200712081716 55 346 0.0 1.0 0.00 0.00 0.00 38 1023.8
20200712081626 55 346 0.0 1.0 0.00 0.00 0.00 38 1023.8
20200712081126 55 1 0.0 0.0 0.00 0.00 0.00 38 1023.8
20200712080122 55 90 0.0 1.0 0.00 0.00 0.00 38 1024.0
20200712075721 55 300 0.0 1.0 0.00 0.00 0.00 37 1024.0
20200712075620 55 300 0.0 1.0 0.00 0.00 0.00 37 1024.0
20200712075158 56 0 0.0 1.0 0.00 0.00 0.00 37 1024.0
20200712075120 56 0 0.0 1.0 0.00 0.00 0.00 37 1024.0
20200712074617 56 90 0.0 1.0 0.00 0.00 0.00 37 1024.0
20200712073616 56 38 0.0 0.0 0.00 0.00 0.00 37 1024.0
20200712072613 56 225 0.0 1.0 0.00 0.00 0.00 36 1024.1
20200712072112 57 45 0.0 1.0 0.00 0.00 0.00 36 1024.2
20200712071610 57 90 0.0 0.0 0.00 0.00 0.00 35 1024.2
20200712071109 57 45 0.0 0.0 0.00 0.00 0.00 35 1024.1
20200712070607 57 90 0.0 0.0 0.00 0.00 0.00 35 1024.2
20200712065107 58 110 0.0 0.0 0.00 0.00 0.00 34 1024.2
20200712064601 58 165 0.0 1.0 0.00 0.00 0.00 34 1024.3
20200712064143 58 45 0.0 0.0 0.00 0.00 0.00 34 1024.2
20200712064122 58 45 0.0 0.0 0.00 0.00 0.00 34 1024.2
20200712063156 58 351 0.0 0.0 0.00 0.00 0.00 34 1024.2
20200712063057 58 351 0.0 0.0 0.00 0.00 0.00 34 1024.2
20200712061553 59 45 0.0 0.0 0.00 0.00 0.00 33 1024.3
20200712051037 63 45 0.0 0.0 0.00 0.00 0.00 30 1024.4
20200712050034 63 45 0.0 0.0 0.00 0.00 0.00 30 1024.4
20200712045531 64 45 0.0 0.0 0.00 0.00 0.00 29 1024.5
20200712044035 65 45 0.0 0.0 0.00 0.00 0.00 28 1024.4
20200712043528 65 45 0.0 0.0 0.00 0.00 0.00 28 1024.3
20200712043026 65 46 0.0 0.0 0.00 0.00 0.00 27 1024.2
20200712040519 68 45 0.0 0.0 0.00 0.00 0.00 25 1024.0
20200712040017 68 45 0.0 0.0 0.00 0.00 0.00 25 1023.9
20200712034015 70 90 0.0 0.0 0.00 0.00 0.00 23 1023.9
20200712033513 70 90 0.0 0.0 0.00 0.00 0.00 23 1023.8
20200712032010 71 40 0.0 1.0 0.00 0.00 0.00 22 1023.8
20200712031507 72 45 0.0 2.0 0.00 0.00 0.00 21 1023.7
20200712031004 72 45 0.0 1.0 0.00 0.00 0.00 21 1023.7
20200712030506 73 13 1.0 2.0 0.00 0.00 0.00 21 1023.7
20200712030001 73 45 0.0 3.0 0.00 0.00 0.00 21 1023.7
20200712025458 73 45 1.0 3.0 0.00 0.00 0.00 21 1023.6
20200712025001 73 13 1.0 2.0 0.00 0.00 0.00 21 1023.6
20200712023956 74 30 0.0 2.0 0.00 0.00 0.00 20 1023.6
20200712023454 74 45 0.0 2.0 0.00 0.00 0.00 20 1023.6
20200712022953 75 45 0.0 1.0 0.00 0.00 0.00 20 1023.5
20200712022452 75 45 0.0 3.0 0.00 0.00 0.00 19 1023.6
20200712021448 76 35 2.0 3.0 0.00 0.00 0.00 19 1023.5
20200712020948 76 60 1.0 2.0 0.00 0.00 0.00 19 1023.6
20200712020445 76 40 1.0 2.0 0.00 0.00 0.00 19 1023.5
20200712015442 77 45 0.0 5.0 0.00 0.00 0.00 18 1023.5
20200712014942 77 37 2.0 5.0 0.00 0.00 0.00 18 1023.5
20200712014440 77 45 1.0 3.0 0.00 0.00 0.00 18 1023.5
20200712013939 78 8 1.0 4.0 0.00 0.00 0.00 18 1023.4
20200712013437 78 10 1.0 3.0 0.00 0.00 0.00 18 1023.4
20200712012435 79 45 0.0 5.0 0.00 0.00 0.00 18 1023.4
20200712011431 79 29 2.0 3.0 0.00 0.00 0.00 18 1023.5
20200712010932 79 45 1.0 4.0 0.00 0.00 0.00 18 1023.4
20200712005931 80 33 2.0 3.0 0.00 0.00 0.00 17 1023.4
20200712005426 80 45 2.0 7.0 0.00 0.00 0.00 17 1023.5
20200712004926 80 346 4.0 4.0 0.00 0.00 0.00 17 1023.5
20200712004423 81 31 1.0 4.0 0.00 0.00 0.00 17 1023.5
20200712003923 81 50 2.0 2.0 0.00 0.00 0.00 17 1023.6
20200712003420 81 59 1.0 3.0 0.00 0.00 0.00 17 1023.7
20200712002921 81 53 2.0 4.0 0.00 0.00 0.00 17 1023.6
20200712002418 82 55 2.0 6.0 0.00 0.00 0.00 17 1023.7
20200712001919 82 11 3.0 4.0 0.00 0.00 0.00 17 1023.8
20200712001415 83 45 1.0 5.0 0.00 0.00 0.00 17 1023.7
20200712000915 83 31 1.0 3.0 0.00 0.00 0.00 17 1023.8
20200712000411 83 355 4.0 6.0 0.00 0.00 0.00 16 1023.8
20200711235915 84 23 1.0 3.0 0.00 0.00 0.00 16 1023.7
20200711235410 84 40 1.0 5.0 0.00 0.00 0.00 16 1023.8
20200711234407 85 50 3.0 6.0 0.00 0.00 0.00 16 1023.9
20200711233908 85 40 3.0 6.0 0.00 0.00 0.00 15 1023.9
20200711233404 86 45 4.0 8.0 0.00 0.00 0.00 16 1023.9
20200711232908 86 359 2.0 8.0 0.00 0.00 0.00 16 1023.9
20200711232402 87 348 7.0 7.0 0.00 0.00 0.00 16 1023.9
20200711231902 87 110 0.0 0.0 0.00 0.00 0.00 15 1023.9
20200711231535 87 352 9.0 9.0 0.00 0.00 0.00 16 1024.0
20200711231058 87 45 1.0 4.0 0.00 0.00 0.00 16 1023.9
20200711230557 88 48 1.0 2.0 0.00 0.00 0.00 15 1023.9
20200711230053 88 45 1.0 3.0 0.00 0.00 0.00 15 1024.0
20200711224551 89 53 2.0 5.0 0.00 0.00 0.00 15 1024.0
20200711224048 89 39 2.0 4.0 0.00 0.00 0.00 15 1024.0
20200711223548 89 24 1.0 8.0 0.00 0.00 0.00 15 1024.1
20200711222043 89 36 3.0 3.0 0.00 0.00 0.00 15 1024.1
20200711221542 90 45 1.0 7.0 0.00 0.00 0.00 14 1024.1
20200711221040 90 72 1.0 4.0 0.00 0.00 0.00 14 1024.1
20200711220540 90 40 3.0 4.0 0.00 0.00 0.00 14 1024.1
20200711220037 90 53 0.0 10.0 0.00 0.00 0.00 14 1024.2
20200711215536 90 45 1.0 9.0 0.00 0.00 0.00 14 1024.1
20200711215034 90 51 3.0 10.0 0.00 0.00 0.00 14 1024.2
20200711214534 90 89 5.0 8.0 0.00 0.00 0.00 14 1024.2
20200711214031 90 45 1.0 6.0 0.00 0.00 0.00 14 1024.2
20200711213531 90 22 1.0 9.0 0.00 0.00 0.00 14 1024.2
20200711213429 90 333 11.0 11.0 0.00 0.00 0.00 14 1024.3
20200711213306 90 25 3.0 8.0 0.00 0.00 0.00 14 1024.3
20200711212803 90 174 1.0 8.0 0.00 0.00 0.00 13 1024.1
20200711212303 90 229 5.0 7.0 0.00 0.00 0.00 13 1024.2
20200711211800 90 34 2.0 7.0 0.00 0.00 0.00 13 1024.2
20200711211300 90 58 1.0 5.0 0.00 0.00 0.00 13 1024.3
20200711205755 90 45 4.0 6.0 0.00 0.00 0.00 12 1024.3
20200711204841 90 6 2.0 6.0 0.00 0.00 0.00 13 1024.4
20200711204754 90 6 2.0 6.0 0.00 0.00 0.00 13 1024.4
20200711204252 90 314 1.0 5.0 0.00 0.00 0.00 13 1024.4
20200711203749 90 348 2.0 8.0 0.00 0.00 0.00 13 1024.5
20200711203251 90 31 2.0 6.0 0.00 0.00 0.00 13 1024.5
20200711202747 90 1 2.0 6.0 0.00 0.00 0.00 13 1024.6
20200711202246 89 22 2.0 5.0 0.00 0.00 0.00 14 1024.6
20200711201843 89 265 5.0 8.0 0.00 0.00 0.00 13 1024.5
20200711201744 89 265 5.0 8.0 0.00 0.00 0.00 13 1024.5
20200711201322 89 16 2.0 4.0 0.00 0.00 0.00 13 1024.5
20200711201244 89 16 2.0 4.0 0.00 0.00 0.00 13 1024.5
20200711200819 89 63 1.0 7.0 0.00 0.00 0.00 13 1024.5
20200711200741 89 63 1.0 7.0 0.00 0.00 0.00 13 1024.5
20200711195739 89 72 1.0 4.0 0.00 0.00 0.00 13 1024.5
20200711195238 88 45 0.0 5.0 0.00 0.00 0.00 14 1024.5
20200711194736 88 2 2.0 6.0 0.00 0.00 0.00 14 1024.5
20200711194237 88 29 0.0 5.0 0.00 0.00 0.00 14 1024.6
20200711193235 88 29 1.0 6.0 0.00 0.00 0.00 14 1024.6
20200711192731 87 26 0.0 4.0 0.00 0.00 0.00 14 1024.7
20200711191822 87 354 1.0 5.0 0.00 0.00 0.00 15 1024.7
20200711191731 87 354 1.0 5.0 0.00 0.00 0.00 15 1024.7
20200711190226 86 63 0.0 3.0 0.00 0.00 0.00 15 1024.6
20200711185223 86 54 1.0 4.0 0.00 0.00 0.00 16 1024.7
20200711184718 86 25 3.0 4.0 0.00 0.00 0.00 17 1024.7
20200711184219 85 52 0.0 3.0 0.00 0.00 0.00 17 1024.6
20200711183216 85 51 0.0 3.0 0.00 0.00 0.00 19 1024.6
20200711182714 85 46 1.0 4.0 0.00 0.00 0.00 19 1024.6
20200711182213 84 0 2.0 4.0 0.00 0.00 0.00 20 1024.6
20200711181714 84 53 4.0 4.0 0.00 0.00 0.00 20 1024.6
20200711181211 83 45 1.0 6.0 0.00 0.00 0.00 20 1024.5
20200711180708 83 27 4.0 4.0 0.00 0.00 0.00 21 1024.6
20200711175706 81 45 1.0 4.0 0.00 0.00 0.00 23 1024.5
20200711175245 81 27 1.0 3.0 0.00 0.00 0.00 24 1024.5
20200711175204 81 27 1.0 3.0 0.00 0.00 0.00 24 1024.5
20200711174743 80 40 2.0 4.0 0.00 0.00 0.00 24 1024.6
20200711174705 80 40 2.0 4.0 0.00 0.00 0.00 24 1024.6
20200711174204 79 6 3.0 5.0 0.00 0.00 0.00 24 1024.4
20200711173739 79 41 3.0 4.0 0.00 0.00 0.00 25 1024.5
20200711173700 79 41 3.0 4.0 0.00 0.00 0.00 25 1024.5
20200711172700 77 45 0.0 6.0 0.00 0.00 0.00 27 1024.5
20200711172200 76 45 0.0 3.0 0.00 0.00 0.00 27 1024.3
20200711171156 74 81 1.0 4.0 0.00 0.00 0.00 29 1024.3
20200711170654 73 26 2.0 3.0 0.00 0.00 0.00 30 1024.3
20200711165150 69 45 1.0 2.0 0.00 0.00 0.00 32 1024.3
20200711164648 69 90 0.0 2.0 0.00 0.00 0.00 31 1024.3
20200711164147 69 63 0.0 1.0 0.00 0.00 0.00 33 1024.2
20200711163644 68 90 0.0 1.0 0.00 0.00 0.00 33 1024.3
20200711163146 67 50 0.0 1.0 0.00 0.00 0.00 34 1024.3